Pontiac, MI

10:35 AM EST on December 16, 2017 (GMT -0500)
Oakland County International

Weather History for KPTK - September, 2013

Change the Weather History Date:

Monday, September 9, 2013

  Actual Average Record
Temperature  
Mean Temperature 64 °F -  
Max Temperature 73 °F 74 °F 91 °F (2002)
Min Temperature 54 °F 54 °F 43 °F (2017)
Degree Days  
Heating Degree Days 2    
Growing Degree Days 14 (Base 50)    
Moisture  
Dew Point 58 °F    
Average Humidity 80    
Maximum Humidity 90    
Minimum Humidity 64    
Precipitation  
Precipitation 0.04 in - - ()
Sea Level Pressure  
Sea Level Pressure 30.00 in    
Wind  
Wind Speed 3 mph (SE)    
Max Wind Speed 8 mph    
Max Gust Speed -    
Visibility 8 miles    
Events Rain    
Averages and records for this station are not official NWS values.
T = Trace of Precipitation, MM = Missing Value Source: NWS Daily Summary

Daily Weather History Graph

Daily Weather History Graph

Search for Another Location

Airport or City:

Trip Planner

Search our weather history database for the weather conditions in past years. The results will help you decide how hot, cold, wet, or windy it might be!

Date:

Astronomy

Sep. 09, 2013 Rise Set
Actual Time 7:07 AM EDT 7:53 PM EDT
Civil Twilight 6:38 AM EDT 8:22 PM EDT
Nautical Twilight 6:04 AM EDT 8:56 PM EDT
Astronomical Twilight 5:29 AM EDT 9:31 PM EDT
Moon 11:34 AM EDT (9/9) 10:02 PM EDT (9/9)
Length of Visible Light 13h 43m
Length of Day
12h 46m
Waxing Crescent, 19% of the Moon is Illuminated
Sep 9
Waxing Crescent
Sep 12
First Quarter
Sep 19
Full
Sep 26
Last Quarter
Oct 4
New

Hourly Weather History & Observations

Time (EDT) Temp. Dew Point Humidity Pressure Visibility Wind Dir Wind Speed Gust Speed Precip Events Conditions
12:53 AM 55.9 °F 48.9 °F 77% 30.07 in 10.0 mi Calm Calm - N/A   Clear
1:53 AM 55.9 °F 50.0 °F 80% 30.08 in 10.0 mi Calm Calm - N/A   Clear
2:53 AM 54.0 °F 48.9 °F 83% 30.07 in 10.0 mi Calm Calm - N/A   Clear
3:53 AM 54.0 °F 50.0 °F 86% 30.07 in 10.0 mi Calm Calm - N/A   Clear
4:53 AM 55.9 °F 52.0 °F 87% 30.06 in 10.0 mi Calm Calm - N/A   Clear
5:53 AM 57.9 °F 54.0 °F 87% 30.05 in 10.0 mi East 3.5 mph - N/A   Overcast
6:53 AM 61.0 °F 55.0 °F 81% 30.05 in 10.0 mi SE 5.8 mph - 0.00 in Rain Light Rain
7:53 AM 61.0 °F 54.0 °F 78% 30.05 in 10.0 mi ESE 4.6 mph - 0.00 in   Overcast
8:53 AM 63.0 °F 51.1 °F 65% 30.04 in 10.0 mi South 5.8 mph - N/A   Overcast
9:32 AM 64.4 °F 51.8 °F 64% 30.04 in 10.0 mi East 5.8 mph - N/A   Overcast
9:53 AM 64.0 °F 52.0 °F 65% 30.03 in 10.0 mi SE 5.8 mph - N/A   Overcast
10:18 AM 64.4 °F 53.6 °F 68% 30.04 in 10.0 mi ESE 5.8 mph - N/A   Overcast
10:53 AM 64.9 °F 53.1 °F 65% 30.04 in 10.0 mi SE 6.9 mph - N/A   Overcast
11:53 AM 64.9 °F 54.0 °F 68% 30.04 in 10.0 mi South 3.5 mph - N/A   Overcast
12:15 PM 64.4 °F 55.4 °F 73% 30.05 in 4.0 mi South 3.5 mph - 0.01 in Rain Light Rain
12:53 PM 64.0 °F 59.0 °F 84% 30.01 in 7.0 mi SE 5.8 mph - 0.02 in Rain Light Rain
1:27 PM 64.4 °F 60.8 °F 88% 30.01 in 10.0 mi Calm Calm - 0.01 in Rain Light Rain
1:53 PM 64.9 °F 61.0 °F 87% 29.99 in 10.0 mi East 5.8 mph - 0.01 in Rain Light Rain
2:39 PM 66.2 °F 62.6 °F 88% 29.99 in 10.0 mi SE 5.8 mph - 0.01 in   Overcast
2:53 PM 68.0 °F 63.0 °F 84% 29.98 in 10.0 mi SE 4.6 mph - 0.01 in   Mostly Cloudy
3:53 PM 70.0 °F 64.9 °F 84% 29.96 in 8.0 mi SSE 6.9 mph - N/A   Overcast
4:53 PM 71.1 °F 66.0 °F 84% 29.94 in 6.0 mi SSE 6.9 mph - N/A   Haze
5:53 PM 72.0 °F 66.0 °F 81% 29.93 in 6.0 mi SSE 8.1 mph - N/A   Haze
6:04 PM 73.4 °F 66.2 °F 78% 29.94 in 6.0 mi SE 8.1 mph - N/A   Haze
6:53 PM 73.0 °F 66.0 °F 79% 29.92 in 6.0 mi SE 8.1 mph - N/A   Haze
7:53 PM 71.1 °F 66.0 °F 84% 29.91 in 6.0 mi SSE 4.6 mph - N/A   Haze
8:53 PM 70.0 °F 66.0 °F 87% 29.93 in 6.0 mi SE 3.5 mph - N/A   Partly Cloudy
9:53 PM 70.0 °F 66.0 °F 87% 29.93 in 5.0 mi SSE 4.6 mph - N/A   Mostly Cloudy
10:53 PM 70.0 °F 66.0 °F 87% 29.93 in 5.0 mi Calm Calm - N/A   Partly Cloudy
11:53 PM 69.1 °F 66.0 °F 90% 29.91 in 4.0 mi SSE 6.9 mph - N/A   Partly Cloudy